EW5414 Weather Reports


time (UTC)temp
C
wind
direction
speed
KPH
gust
KPH
rain 1hr
cm
rain 24hr
cm
rain mn
cm
humidity
%
barometer
mb
20260506184511 7 287 0.0 0.0 0.00 1.32 1.30 88 1011.9
20260506183017 7 287 0.0 0.0 0.00 1.32 1.30 87 1011.9
20260506181530 8 287 0.0 0.0 0.00 1.32 1.30 87 1011.8
20260506180005 8 287 0.0 0.0 0.00 1.37 1.30 87 1011.6
20260506174507 8 287 0.0 0.0 0.00 1.37 1.30 87 1011.4
20260506173014 8 287 0.0 0.0 0.00 1.37 1.30 87 1011.2
20260506171535 8 284 0.0 0.0 0.00 1.37 1.30 88 1011.2
20260506170023 8 284 0.0 0.0 0.00 1.37 1.30 88 1011.2
20260506164508 8 279 0.0 0.0 0.00 1.37 1.30 88 1011.2
20260506163019 8 279 0.0 0.0 0.00 1.37 1.30 87 1011.2
20260506161520 8 269 0.0 0.0 0.00 1.37 1.30 87 1011.2
20260506160020 8 231 0.0 0.0 0.00 1.37 1.30 87 1011.2
20260506154525 8 281 0.0 0.0 0.00 1.37 1.30 87 1011.3
20260506153010 8 234 0.0 0.0 0.00 1.40 1.30 87 1011.3
20260506151514 8 256 0.0 0.0 0.00 1.42 1.30 86 1011.4
20260506150023 8 285 0.0 0.0 0.00 1.42 1.30 87 1011.4
20260506144526 8 291 0.0 0.0 0.00 1.42 1.30 88 1011.4
20260506143024 8 298 0.0 0.0 0.00 1.42 1.30 88 1011.5
20260506141526 8 285 0.0 0.0 0.00 1.42 1.30 88 1011.4
20260506140019 8 220 0.0 0.0 0.00 1.42 1.30 88 1011.4
20260506134543 8 249 0.0 0.0 0.00 1.42 1.30 87 1011.5
20260506133025 8 307 0.0 0.0 0.00 1.42 1.30 87 1011.4
20260506131527 8 228 0.0 0.0 0.00 1.42 1.30 87 1011.3
20260506130028 7 253 0.0 0.0 0.00 1.42 1.30 87 1011.3
20260506124518 8 292 0.0 0.0 0.00 1.42 1.30 87 1011.2
20260506123004 8 279 0.0 0.0 0.00 1.42 1.30 88 1011.0
20260506121510 8 171 0.0 0.0 0.00 1.42 1.30 89 1010.8
20260506120013 8 187 0.0 0.0 0.00 1.45 1.30 90 1010.6
20260506114522 8 257 0.0 1.6 0.00 1.45 1.30 90 1010.6
20260506113020 8 257 0.0 12.9 0.00 1.45 1.30 91 1010.5
20260506111504 8 302 0.0 16.1 0.03 1.52 1.30 92 1010.5
20260506110012 7 286 0.0 8.0 0.05 1.73 1.30 92 1010.6
20260506104510 7 300 0.0 1.6 0.05 1.83 1.30 92 1010.7
20260506103022 6 278 1.6 11.3 0.15 1.91 1.30 92 1010.7
20260506101519 7 281 0.0 0.0 0.18 1.91 1.27 92 1010.7
20260506100004 6 273 0.0 0.0 0.23 1.88 1.24 92 1010.6
20260506094514 6 277 0.0 0.0 0.28 1.88 1.22 92 1010.6
20260506093014 6 266 0.0 0.0 0.25 1.78 1.12 92 1010.3
20260506091524 7 295 0.0 0.0 0.28 1.70 1.07 92 1010.0
20260506090021 7 299 0.0 0.0 0.33 1.65 1.02 92 1009.7
20260506084526 8 299 0.0 0.0 0.36 1.57 0.94 92 1009.5
20260506083008 7 310 0.0 0.0 0.36 1.50 0.86 92 1009.3
20260506081521 8 259 0.0 0.0 0.36 1.40 0.76 92 1009.1
20260506073031 8 296 0.0 0.0 0.36 1.14 0.51 92 1008.7
20260506071510 8 296 0.0 0.0 0.28 1.04 0.41 92 1008.5
20260506061534 8 290 0.0 0.0 0.00 0.76 0.10 92 1008.2
20260506044519 7 290 0.0 0.0 0.00 0.84 0.08 92 1007.8
20260506043018 7 290 0.0 0.0 0.00 0.89 0.08 92 1008.0
20260506041505 7 290 0.0 0.0 0.00 0.94 0.08 92 1008.2
20260506040007 7 290 0.0 0.0 0.00 1.02 0.08 92 1008.1
20260506034514 7 290 0.0 0.0 0.00 1.04 0.08 92 1008.1
20260506033019 7 290 0.0 0.0 0.00 1.07 0.08 92 1008.3
20260506031528 7 290 0.0 0.0 0.00 1.09 0.08 92 1008.4
20260506030006 7 290 0.0 0.0 0.00 1.12 0.08 92 1008.6
20260506024525 7 290 0.0 0.0 0.00 1.12 0.08 92 1008.7
20260506023015 7 290 0.0 0.0 0.00 1.17 0.08 91 1009.0
20260506021521 7 290 0.0 0.0 0.00 1.22 0.08 91 1009.0
20260506020024 7 290 0.0 0.0 0.00 1.24 0.08 91 1009.2
20260506014513 8 290 0.0 0.0 0.00 1.30 0.08 91 1009.4
20260506013011 8 290 0.0 0.0 0.00 1.35 0.08 91 1009.4
20260506011537 8 290 0.0 0.0 0.00 1.42 0.08 91 1009.8
20260506010022 8 290 0.0 0.0 0.00 1.45 0.08 91 1010.0
20260506004524 8 290 0.0 0.0 0.00 1.47 0.08 91 1010.2
20260506003010 8 290 0.0 0.0 0.00 1.47 0.08 91 1010.4
20260506001512 8 289 0.0 0.0 0.00 1.47 0.08 91 1010.8
20260506000035 8 281 0.0 0.0 0.00 1.47 0.08 91 1010.9
20260505234537 8 290 0.0 0.0 0.00 1.47 0.08 91 1011.0
20260505233028 9 284 0.0 0.0 0.00 1.47 0.08 91 1011.2
20260505231512 9 260 0.0 0.0 0.03 1.47 0.08 91 1011.4
20260505230037 8 294 0.0 0.0 0.08 1.47 0.08 91 1011.4
20260505224534 8 294 0.0 0.0 0.08 1.45 0.08 90 1011.6
20260505223026 9 300 0.0 0.0 0.08 1.45 0.08 90 1011.8
20260505221526 9 281 0.0 0.0 0.08 1.42 0.05 90 1011.9
20260505220027 9 294 0.0 0.0 0.00 1.37 0.00 89 1012.1
20260505214521 9 294 0.0 0.0 0.00 1.35 1.35 89 1012.3
20260505213024 9 294 0.0 0.0 0.00 1.35 1.35 89 1012.0
20260505211529 8 294 0.0 0.0 0.00 1.35 1.35 89 1011.8
20260505210008 8 294 0.0 0.0 0.00 1.35 1.35 89 1011.9
20260505204516 8 294 0.0 0.0 0.00 1.35 1.35 88 1012.0
20260505203017 9 294 0.0 0.0 0.00 1.35 1.35 89 1012.0
20260505201524 9 284 0.0 0.0 0.00 1.35 1.35 89 1011.9
20260505200026 8 284 0.0 0.0 0.00 1.35 1.35 90 1011.8
20260505194508 8 284 0.0 0.0 0.00 1.35 1.35 89 1011.6
20260505193020 8 284 0.0 0.0 0.00 1.35 1.35 89 1011.5
20260505191519 8 284 0.0 0.0 0.00 1.35 1.35 89 1011.2
20260505190025 8 283 0.0 0.0 0.03 1.35 1.35 89 1011.0